Grand Canyon, AZ

10:19 PM MST on March 23, 2017 (GMT -0700)
Grand Canyon National Park

Weather History for KGCN - January, 2014

Change the Weather History Date:

Thursday, January 9, 2014

  Actual Average Record
Temperature  
Mean Temperature 27 °F -  
Max Temperature 45 °F 42 °F 56 °F (1990)
Min Temperature 9 °F 15 °F -9 °F (1989)
Degree Days  
Heating Degree Days 38    
Moisture  
Dew Point 9 °F    
Average Humidity 53    
Maximum Humidity 87    
Minimum Humidity 24    
Precipitation  
Precipitation 0.00 in - - ()
Sea Level Pressure  
Sea Level Pressure 30.09 in    
Wind  
Wind Speed 3 mph (WSW)    
Max Wind Speed 14 mph    
Max Gust Speed 20 mph    
Visibility 10 miles    
Events      
Averages and records for this station are not official NWS values.
T = Trace of Precipitation, MM = Missing Value Source: NWS Daily Summary

Daily Weather History Graph

Daily Weather History Graph

Search for Another Location

Airport or City:

Trip Planner

Search our weather history database for the weather conditions in past years. The results will help you decide how hot, cold, wet, or windy it might be!

Date:

Astronomy

Jan. 09, 2014 Rise Set
Actual Time 7:39 AM MST 5:32 PM MST
Civil Twilight 7:11 AM MST 6:00 PM MST
Nautical Twilight 6:39 AM MST 6:32 PM MST
Astronomical Twilight 6:08 AM MST 7:03 PM MST
Moon 12:57 PM MST (1/9) 1:55 AM MST (1/9)
Length of Visible Light 10h 49m
Length of Day
9h 52m
Waxing Gibbous, 66% of the Moon is Illuminated
Jan 9
Waxing Gibbous
Jan 15
Full
Jan 23
Last Quarter
Jan 30
New
Feb 6
First Quarter

Hourly Weather History & Observations

Time (MST) Temp. Windchill Dew Point Humidity Pressure Visibility Wind Dir Wind Speed Gust Speed Precip Events Conditions
12:54 AM 14.0 °F - 7.0 °F 74% 30.12 in 10.0 mi Calm Calm - N/A   Clear
1:54 AM 12.9 °F - 7.0 °F 77% 30.12 in 10.0 mi Calm Calm - N/A   Clear
2:54 AM 12.9 °F - 6.1 °F 74% 30.12 in 10.0 mi Calm Calm - N/A   Clear
3:54 AM 12.9 °F - 7.0 °F 77% 30.10 in 10.0 mi Calm Calm - N/A   Clear
4:54 AM 12.0 °F - 7.0 °F 80% 30.10 in 10.0 mi Calm Calm - N/A   Clear
5:54 AM 10.0 °F - 7.0 °F 87% 30.14 in 10.0 mi Calm Calm - N/A   Clear
6:54 AM 10.0 °F - 6.1 °F 84% 30.22 in 10.0 mi Calm Calm - N/A   Clear
7:54 AM 9.0 °F - 5.0 °F 84% 30.23 in 10.0 mi Calm Calm - N/A   Clear
8:54 AM 21.9 °F 17.2 °F 12.0 °F 66% 30.20 in 10.0 mi ENE 3.5 mph - N/A   Clear
9:54 AM 37.0 °F - 14.0 °F 39% 30.13 in 10.0 mi Calm Calm - N/A   Mostly Cloudy
10:54 AM 43.0 °F 37.2 °F 12.0 °F 28% 30.09 in 10.0 mi SW 10.4 mph - N/A   Clear
11:54 AM 45.0 °F 39.3 °F 10.9 °F 25% 30.08 in 10.0 mi SSW 11.5 mph - N/A   Partly Cloudy
12:54 PM 44.1 °F 39.0 °F 10.0 °F 25% 30.05 in 10.0 mi WSW 9.2 mph 17.3 mph N/A   Overcast
1:54 PM 45.0 °F 40.1 °F 10.0 °F 24% 30.03 in 10.0 mi WSW 9.2 mph - N/A   Overcast
2:54 PM 44.1 °F 39.0 °F 10.0 °F 25% 30.01 in 10.0 mi WSW 9.2 mph - N/A   Mostly Cloudy
4:54 PM 44.1 °F 37.4 °F 9.0 °F 24% 30.00 in 10.0 mi West 13.8 mph 19.6 mph N/A   Clear
5:54 PM 37.0 °F 33.3 °F 9.0 °F 31% 30.05 in 10.0 mi WSW 4.6 mph - N/A   Clear
6:54 PM 34.0 °F 31.0 °F 10.0 °F 37% 30.10 in 10.0 mi Variable 3.5 mph - N/A   Clear
7:54 PM 36.0 °F 30.3 °F 10.9 °F 36% 30.08 in 10.0 mi West 6.9 mph - N/A   Clear
8:54 PM 35.1 °F 30.1 °F 12.0 °F 39% 30.05 in 10.0 mi West 5.8 mph - N/A   Clear
9:54 PM 30.9 °F 25.2 °F 12.0 °F 46% 30.01 in 10.0 mi SW 5.8 mph - N/A   Clear
10:54 PM 19.0 °F - 8.1 °F 62% 30.07 in 10.0 mi Calm Calm - N/A   Clear
11:54 PM 18.0 °F 12.7 °F 9.0 °F 68% 30.06 in 10.0 mi ENE 3.5 mph - N/A   Clear